Tracking 29040 objects as of 16-Jun-2024
HD Live streaming from Space Station
objects crossing your sky now

SL-14 DEB

Track SL-14 DEB now!
10-day predictions


NORAD ID: 26028
Int'l Code: 1991-068AP
Perigee: 1,471.8 km
Apogee: 1,506.6 km
Inclination: 82.7 °
Period: 115.6 minutes
Semi major axis: 7860 km
RCS: 0.0352 m2 (small)
Launch date: September 28, 1991
Source: Commonwealth of Independent States (former USSR) (CIS)
Launch site: PLESETSK MISSILE AND SPACE COMPLEX (PKMTR)

Note: This is SATELLITE DEBRIS
Your satellite tracking list
Your tracking list is empty




NASA's NSSDC Master Catalog

Two Line Element Set (TLE):
1 26028U 91068AP  24168.53978171  .00000122  00000-0  77803-3 0  9997
2 26028  82.6984   9.4087 0022184 330.8817  57.0191 12.45811485143013
Source of the keplerian elements: AFSPC